Regional Weather Roundup
Issued by NWS

Home | Current Version | Previous Version | Graphics & Text | Print | Product List | Glossary On
Versions: 1 2 3 4 5 6 7 8 9 10 11 12 13 14 15 16 17 18 19 20 21 22 23 24 25 26 27 28 29 30 31 32 33 34 35 36 37 38 39 40 41 42 43 44 45 46 47 48 49 50
000
ASUS43 KMKX 281521
RWRWI

WISCONSIN REGIONAL WEATHER ROUNDUP
NATIONAL WEATHER SERVICE MILWAUKEE/SULLIVAN WI
1000 AM CDT SUN AUG 28 2016

NOTE: "FAIR" INDICATES FEW OR NO CLOUDS BELOW 12,000 FEET WITH NO
SIGNIFICANT WEATHER AND/OR OBSTRUCTIONS TO VISIBILITY.

WIZ001-002-006>008-014>016-023>028-281600-
NORTHWEST WISCONSIN

CITY           SKY/WX    TMP DP  RH WIND       PRES   REMARKS
SUPERIOR ARPT  CLOUDY    62  61  96 CALM      30.17R
ASHLAND        CLOUDY    63  62  97 CALM      30.19F
HAYWARD        CLOUDY    64  60  87 S6        30.19F
SIREN          CLOUDY    62  61  97 SE8       30.16F FOG
CUMBERLAND     FOG       61  59  94 SE6       30.20S VSB 3/4
RICE LAKE      CLOUDY    62  61  96 SE6       30.21S FOG
CHETEK         NOT AVBL
LADYSMITH      CLOUDY    66  61  84 CALM      30.22S
EAU CLAIRE     CLOUDY    67  64  90 CALM      30.19S
MENOMONIE      CLOUDY    66  66  99 E3        30.20R
NEW RICHMOND   CLOUDY    64  64 100 SE5       30.18F FOG
OSCEOLA        CLOUDY    63  63 100 SE5       30.19F FOG
$$

WIZ003>005-009-010-017-018-281600-
NORTH CENTRAL WISCONSIN

CITY           SKY/WX    TMP DP  RH WIND       PRES   REMARKS
MANITOWISH WTR NOT AVBL
ARBOR VITAE    CLOUDY    64  58  81 CALM      30.22S
WOODRUFF       CLOUDY    64  58  81 CALM      30.22S
RHINELANDER    CLOUDY    67  59  75 W3        30.23R
EAGLE RIVER    CLOUDY    65  56  72 W5        30.22S
LAND O LAKES   PTSUNNY   65  58  78 SW3       30.23R
PHILLIPS       CLOUDY    64  59  85 S3        30.22R
TOMAHAWK       CLOUDY    64  58  78 CALM      30.23R
MEDFORD        PTSUNNY   66  64  94 CALM      30.22S
MERRILL        MOSUNNY   68  61  77 CALM      30.23R
$$

WIZ029-030-035-036-043>047-281600-
CENTRAL WISCONSIN

CITY           SKY/WX    TMP DP  RH WIND       PRES   REMARKS
WAUSAU         MOSUNNY   67  60  78 S6        30.21R
MOSINEE        PTSUNNY   66  63  88 E3        30.24R
MARSHFIELD     CLOUDY    68  61  78 CALM      30.22R
STEVENS POINT  CLOUDY    65  60  85 CALM      30.23S
WAUPACA        PTSUNNY   73  63  70 SW3       30.23R
WAUTOMA        PTSUNNY   70  65  84 S5        30.22F
WISC RAPIDS    CLOUDY    70  63  78 CALM      30.23S
CAMP DOUGLAS   CLOUDY    70  66  88 SE7       30.21F
$$

WIZ011>013-019>022-031-037>040-048>050-281600-
NORTHEAST WISCONSIN

CITY           SKY/WX    TMP DP  RH WIND       PRES   REMARKS
ANTIGO         PTSUNNY   67  60  78 CALM      30.22S
SHAWANO        MOSUNNY   73  62  70 CALM      30.22R
OCONTO         NOT AVBL
STURGEON BAY   MOSUNNY   70  64  81 W6        30.21R
GREEN BAY      MOSUNNY   70  64  81 CALM      30.22R
MANITOWOC      PTSUNNY   70  63  78 VRB5      30.23R
APPLETON       PTSUNNY   70  64  83 CALM      30.22R
CLINTONVILLE   PTSUNNY   70  61  73 SE3       30.22R
OSHKOSH        PTSUNNY   72  64  76 NW5       30.23R
$$

WIZ032>034-041-042-053>061-281600-
SOUTHWEST WISCONSIN

CITY           SKY/WX    TMP DP  RH WIND       PRES   REMARKS
LA CROSSE      CLOUDY    69  67  93 E5        30.19S
SPARTA         CLOUDY    67  65  92 SE3       30.21R
VIROQUA        CLOUDY    66  66 100 SE8       30.22S VSB 1/2
BOSCOBEL       CLOUDY    68  66  93 E5        30.21S FOG
PRAIRIE DU CHI CLOUDY    67  66  96 CALM      30.20R FOG
PLATTEVILLE    SUNNY     74  73  93 SE7       30.22S
$$

WIZ056-057-062-063-064-067-068-281600-
SOUTH CENTRAL WISCONSIN

CITY           SKY/WX    TMP DP  RH WIND       PRES   REMARKS
REEDSBURG      NOT AVBL
BARABOO/DELLS  CLOUDY    65  64  96 SE5       30.24R FOG
LONE ROCK      CLOUDY    66  66 100 E3        30.23R FOG
MINERAL POINT  SUNNY     75  70  83 E6        30.22S
MADISON        FOG       66  65  96 CALM      30.22S VSB 3/4
MIDDLETON      CLOUDY    67  67 100 CALM      30.23F VSB<1/4
WATERTOWN      CLOUDY    65  65 100 CALM      30.23S FOG
MONROE         SUNNY     73  68  83 E5        30.22S
JANESVILLE     MOSUNNY   75  66  73 VRB5      30.21S
$$

WIZ051-052-058>065-066-070>072-281600-
SOUTHEAST WISCONSIN

CITY           SKY/WX    TMP DP  RH WIND       PRES   REMARKS
MILWAUKEE      CLOUDY    68  64  87 NE12      30.24R
WAUKESHA       FOG       64  64 100 CALM      30.25R VSB 1
MILWAUKEE/TIMM CLOUDY    64  61  88 CALM      30.25R
RACINE         CLOUDY    68  65  90 N10       30.25R FOG
BURLINGTON     PTSUNNY   72  65  79 CALM      30.23R
KENOSHA        MOSUNNY   75  67  76 E6        30.23R
FOND DU LAC    PTSUNNY   71  64  78 CALM      30.23R
SHEBOYGAN      MOSUNNY   72  63  73 CALM      30.22R
WEST BEND      CLOUDY    64  64 100 CALM      30.24R
JUNEAU         CLOUDY    63  63  99 NE3       30.25R
$$

LSZ147-162-281600-
LAKE SUPERIOR

STATION/POSITION TIME  TEMP    WIND        PRES    WAVE
                       AIR SEA DIR/SP/G            HT/PER
                 (UTC) (F)     (DEG/KT/KT) (MB)    (FT/S)
W MID LAKE BUOY  1450   65 67  240/  8/ 10 1021.3R   1/ 3
DEVILS ISLAND    1500   64     220/  9/ 10 1022.0R
PORT WING        1440   63     260/  2/  4 1021.7S
SAXON HARBOR     1400   64      CALM  /  2 1021.7
$$

LMZ867-665-643>646-281600-
LAKE MICHIGAN

STATION/POSITION TIME  TEMP    WIND        PRES    WAVE
                       AIR SEA DIR/SP/G            HT/PER
                 (UTC) (F)     (DEG/KT/KT) (MB)    (FT/S)
CHAMBERS ISLAND  1400   69     190/  4/  8 1022.0R
S GREEN BAY BUOY 1500   68 71  250/  6/  8 1022.2R
N MID LAKE BUOY  1450   68 71  250/ 10/ 12 1021.4R   1/ 3
NORTHPORT PIER   1400   71     250/  4/  9 1021.7R
SISTER BAY       1322   73     300/ 12/ 13   N/A
KEWAUNEE LAKESHO 1500   69     270/  2/  6 1022.6R
SHEBOYGAN LAKESH 1500   69      40/  3/  3 1023.0R
PORT WASHINGTON  1400   68     300/  3/  5 1024.0
ATWATER BUOY     1500   64      10/  6/  6   N/A
MILWAUKEE LAKESH 1510   64      10/  7/  9   N/A
S MID LAKE BUOY  1450   74 75   50/  2/  4 1022.5R   1
KENOSHA   LAKESH 1500   69      30/  4/  4 1023.4R
$$

TC  - TEMPERATURE IN CELSIUS
VSB - VISIBILITY IN STATUTE MILES
WCI - WIND CHILL INDEX
HX  - HEAT INDEX




USA.gov is the U.S. government's official web portal to all federal, state and local government web resources and services.